Temperature
11 10 10 11 12 13 14 14 14 15 15 14 13 14 15 15 15 15 16 16 16 16 15 15 14 14 14 13 13 13 13 12 12 12 12 12 12 12 11 11 11 11 11 11
10 9 12 13 13 13 12 12 13 13 14 14 13 13 14 15 15 16 16 16 16 16 15 15 14 14 13 13 13 12 12 12 12 11 11 11 11 11 11 11 11 11 11 11
10 11 12 12 12 12 12 12 12 13 13 13 12 12 13 15 16 16 16 16 16 15 15 14 14 13 13 12 12 12 12 11 11 11 11 11 11 11 11 11 11 11 11 10
10 11 12 11 11 11 11 12 13 12 11 10 12 10 13 14 15 15 15 15 15 15 14 14 13 13 12 12 12 12 12 11 11 11 11 11 10 10 10 10 10 10 10 10
10 11 11 10 11 12 11 12 12 12 11 10 11 10 11 14 14 14 14 15 15 15 14 13 13 12 12 11 11 11 11 11 11 11 11 10 10 10 10 10 10 10 10 10
9 10 10 10 11 11 11 11 11 10 9 8 9 10 11 13 14 14 14 14 14 14 13 13 12 11 11 11 11 11 11 10 10 10 10 10 10 10 9 9 9 9 9 9
8 9 10 10 9 10 10 9 8 8 7 8 11 11 11 13 13 13 13 13 13 13 12 12 11 11 10 10 10 10 10 10 10 10 10 9 9 9 9 9 9 9 9 9
7 8 8 9 9 8 8 9 8 8 8 9 11 11 12 12 12 13 13 13 12 12 12 11 10 10 9 9 9 10 10 9 9 9 9 9 9 9 9 8 8 8 8 8
7 7 9 9 9 9 8 8 9 8 9 9 10 12 12 12 11 11 11 11 11 11 11 10 10 9 9 9 9 9 9 9 9 9 9 9 9 8 8 8 8 8 8 8
7 6 7 8 8 8 9 9 8 7 7 8 10 11 10 10 10 11 10 10 10 10 10 10 9 9 8 8 8 8 8 8 8 8 8 8 8 8 8 7 7 7 7 7
6 5 6 7 6 7 7 7 7 7 8 8 9 10 11 10 10 10 10 10 10 9 9 9 9 9 8 8 8 8 8 8 8 8 8 8 8 7 7 7 7 7 7 7
6 5 5 6 7 7 7 7 7 6 7 8 8 8 10 9 10 10 10 10 10 9 9 9 8 8 8 8 7 7 7 7 7 7 7 7 7 7 6 6 6 6 6 6
5 4 4 5 5 5 5 6 6 6 6 6 7 8 9 9 9 10 9 9 9 9 8 8 8 8 7 7 7 7 7 7 7 7 6 6 6 6 6 6 6 6 5 5
5 3 3 4 4 4 4 5 5 5 5 6 7 8 8 8 8 8 9 9 8 8 8 7 7 7 7 6 6 6 6 6 6 6 6 6 6 5 5 5 5 5 5 5
4 3 3 4 5 5 5 5 5 5 5 5 7 7 8 8 8 8 8 8 7 7 7 6 6 6 6 6 5 5 5 5 5 5 5 5 5 5 5 5 5 4 4 4
3 2 3 3 5 5 4 5 5 5 5 5 6 6 8 8 8 8 7 7 7 6 6 6 5 5 5 5 5 5 5 5 5 5 4 4 4 4 4 4 4 4 4 4
2 1 2 3 4 4 3 4 4 5 5 5 5 6 7 6 6 6 6 6 6 5 5 5 5 4 4 4 4 4 4 4 4 4 4 4 4 4 4 3 3 3 3 3
1 1 1 2 2 2 4 5 5 5 5 5 5 6 6 6 6 5 5 5 5 4 4 4 4 4 4 4 4 4 4 4 4 3 3 3 3 3 3 3 3 3 3 2
2 1 1 1 2 3 4 5 5 4 4 5 5 5 5 5 5 4 4 4 4 3 3 3 3 3 3 3 3 3 3 3 3 3 3 3 3 2 2 2 2 2 2 2
2 1 1 1 1 2 3 4 5 5 3 4 4 4 4 4 2 2 3 3 3 3 3 3 2 3 3 3 3 3 2 2 2 2 2 2 2 2 2 2 1 1 1 1
0 0 0 1 1 2 3 4 5 3 2 3 4 3 3 3 2 3 2 2 2 2 2 2 2 2 2 2 2 2 2 2 2 1 1 1 1 1 1 1 1 1 1 1
0 0 0 1 1 1 3 3 2 2 3 3 3 3 2 2 2 2 2 1 1 1 1 1 1 1 1 1 1 1 1 1 1 1 1 1 1 1 0 0 0 0 -0 -0
1 1 1 1 1 2 2 2 2 2 2 2 2 2 2 1 1 1 1 0 0 0 0 0 0 0 0 0 0 0 0 0 0 0 0 0 -0 -0 -0 -0 -1 -1 -1 -1
1 2 1 1 1 2 2 1 1 1 1 1 1 1 1 1 0 -0 -0 -1 -1 -1 -1 -1 -1 -1 -1 -1 -1 -1 -1 -1 -1 -1 -1 -1 -1 -1 -1 -1 -2 -2 -2 -2
1 1 0 0 1 1 1 1 0 0 0 0 -0 -0 -0 -0 -1 -1 -1 -1 -1 -1 -1 -1 -2 -2 -2 -2 -2 -2 -2 -2 -1 -1 -2 -2 -2 -2 -2 -2 -2 -3 -3 -3
-0 -1 -1 -0 0 -0 0 -0 -0 -0 -1 -1 -1 -1 -1 -2 -2 -2 -2 -2 -2 -2 -2 -2 -2 -2 -2 -2 -2 -2 -2 -2 -2 -2 -2 -2 -3 -3 -3 -3 -3 -3 -3 -3
Wind_Speed
9 8 11 13 16 11 8 8 9 5 2 5 9 12 11 10 10 10 9 9 9 8 8 8 8 8 7 7 7 7 7 6 4 3 3 2 2 1 1 1 1 1 1 1
7 13 13 11 10 11 11 11 10 4 2 4 8 12 12 12 12 11 11 10 9 8 8 7 7 7 7 7 7 7 7 6 5 3 3 2 2 2 2 1 1 1 1 2
12 5 8 10 10 11 12 11 10 7 3 5 7 10 13 12 12 11 10 8 7 8 8 8 7 6 6 6 7 6 6 6 5 4 3 2 2 1 1 2 2 2 2 1
10 9 7 9 11 11 10 8 9 7 5 4 4 6 7 7 9 10 10 9 9 7 7 7 7 7 7 6 6 6 6 5 5 5 4 4 3 3 3 2 2 2 2 2
6 6 7 9 10 9 5 2 5 6 6 6 6 6 7 7 8 9 8 8 7 7 7 7 7 6 6 6 6 5 5 5 4 4 4 4 3 2 2 1 2 2 2 2
7 4 4 5 4 5 3 1 2 3 3 7 10 9 7 5 6 6 6 6 6 6 6 6 6 6 5 5 5 5 5 4 4 4 4 4 4 3 2 2 2 2 1 1
6 7 4 2 2 3 5 4 3 4 5 7 8 8 6 2 2 3 5 5 5 6 6 6 6 6 5 5 5 5 5 4 4 4 4 4 4 4 4 3 2 1 0 1
5 6 8 5 5 5 8 7 5 5 5 4 5 7 3 4 5 4 5 6 6 5 5 6 6 6 5 5 5 5 5 4 4 4 4 4 4 3 2 2 2 1 1 1
3 3 4 5 3 4 6 7 4 2 2 2 5 4 3 5 5 5 5 5 5 4 4 5 5 5 5 4 4 4 4 4 3 4 4 3 3 3 3 2 2 1 1 1
2 2 2 2 2 5 4 4 3 4 4 5 6 7 4 7 6 6 6 6 4 4 4 3 4 4 4 4 3 3 4 3 3 3 3 3 3 3 3 2 2 1 1 1
3 1 2 2 6 7 5 4 4 4 4 4 4 1 2 6 6 6 6 6 5 4 3 2 3 4 4 3 3 3 3 2 2 2 3 3 3 3 2 2 1 1 1 1
2 1 3 4 2 2 4 4 4 4 4 4 2 1 3 6 6 6 6 5 5 4 3 3 3 3 4 3 3 3 2 2 2 2 3 3 3 3 2 2 1 1 0 0
0 1 1 2 1 0 2 4 5 3 2 3 3 2 2 5 5 5 5 5 4 4 4 3 3 4 4 3 3 2 2 2 2 2 3 3 3 3 2 1 1 1 0 0
1 2 3 3 1 1 3 5 5 4 4 5 5 3 1 2 3 3 3 4 4 4 4 4 3 3 4 3 3 3 2 3 3 3 3 3 2 2 2 1 1 1 0 0
1 2 4 5 5 3 4 5 6 7 6 6 5 5 4 1 2 2 2 3 4 4 4 3 3 3 3 3 3 3 3 3 3 3 3 2 2 2 2 1 1 0 0 1
0 1 3 5 4 4 5 6 7 8 8 9 8 7 3 2 2 2 2 2 3 3 3 3 3 3 3 3 2 2 3 3 3 3 2 2 2 2 1 1 0 1 1 2
1 1 2 3 3 3 6 6 6 6 6 7 9 6 1 2 3 2 2 2 2 2 3 3 3 3 3 2 2 2 2 3 3 3 2 2 2 1 1 1 1 1 2 2
3 2 2 2 1 5 4 0 2 4 4 3 2 2 1 2 3 4 4 3 3 3 3 3 3 3 3 3 3 2 2 3 3 2 2 1 1 1 1 1 1 1 1 2
6 4 2 2 3 5 3 2 1 3 3 2 3 2 2 1 3 3 4 5 4 3 3 2 2 3 3 3 3 3 2 2 3 2 1 1 1 1 1 1 2 2 2 3
3 4 3 3 3 4 2 2 2 0 2 2 2 2 3 3 1 1 4 5 5 4 3 3 3 4 4 3 3 3 3 3 2 1 1 1 1 1 1 1 2 2 2 3
2 3 5 5 4 3 3 3 2 2 2 3 3 3 3 2 1 1 3 5 5 5 4 4 4 3 3 3 3 3 2 2 2 2 2 1 1 1 1 2 2 2 3 3
4 3 4 3 4 3 2 2 1 0 2 3 4 4 3 3 3 3 3 3 4 4 4 4 4 3 3 3 3 3 3 3 3 2 2 2 1 1 2 2 3 3 3 4
3 3 2 3 2 1 1 2 2 3 3 4 4 4 3 3 2 3 3 3 4 4 4 4 4 3 4 4 4 3 3 4 3 3 3 3 2 2 2 2 3 3 3 3
1 1 1 2 2 1 2 3 4 4 4 4 4 4 3 3 3 3 3 3 4 4 4 4 4 4 4 4 3 3 3 3 3 3 3 3 2 2 2 2 2 2 3 3
2 1 2 3 2 1 1 3 4 4 4 4 5 5 4 3 3 3 3 3 3 4 4 3 3 3 4 4 4 3 3 3 3 3 3 3 3 2 3 3 2 3 2 3
2 2 2 3 2 1 2 3 3 2 3 4 4 4 5 4 3 3 3 3 3 3 3 3 3 3 3 4 4 4 4 3 3 3 3 2 2 2 2 3 4 6 6 8
Wind_Direction
193 209 212 211 215 239 272 268 258 261 230 225 240 251 251 235 225 229 224 215 211 205 196 181 177 171 163 160 160 161 160 165 154 153 154 156 172 159 139 148 153 170 189 202
197 227 229 231 223 231 253 268 273 282 260 272 269 266 259 241 228 222 220 215 209 202 190 177 169 164 166 166 164 164 165 165 161 156 156 157 156 157 163 154 171 213 215 210
218 224 219 227 229 226 234 240 252 259 284 272 284 278 251 238 226 218 216 211 208 200 187 173 168 168 164 166 165 167 162 158 156 144 130 123 109 107 157 195 206 213 225 216
237 241 232 221 226 223 238 235 248 256 258 258 234 280 266 232 217 212 207 203 205 197 187 173 169 168 167 162 155 156 151 152 152 147 154 163 176 189 203 194 193 207 208 197
231 223 224 228 229 225 232 265 246 245 249 269 245 253 269 229 216 203 196 190 186 180 172 164 162 160 154 148 146 150 150 153 153 154 161 172 189 194 177 171 195 216 215 200
256 262 241 240 251 234 190 206 251 253 245 250 223 221 266 225 203 177 173 165 160 157 153 146 135 128 128 130 135 144 155 162 164 164 169 181 189 181 175 199 216 222 208 211
239 225 205 203 186 203 192 171 177 194 214 241 208 209 241 197 109 123 137 141 137 137 139 134 131 131 135 142 152 159 162 174 174 169 179 192 192 182 183 194 200 199 215 253
211 217 193 196 198 187 206 202 194 198 213 231 206 220 234 114 96 87 92 103 104 114 126 134 138 144 148 156 164 164 168 178 174 172 186 186 182 171 171 170 171 184 200 233
226 237 166 189 216 191 190 220 245 283 291 263 229 217 157 123 121 120 111 102 107 112 116 131 136 141 148 156 164 168 171 170 172 175 172 169 166 154 155 160 157 178 192 217
308 270 221 181 229 244 233 191 179 191 205 234 235 215 196 156 151 138 129 118 104 106 110 123 136 142 149 154 156 158 160 162 163 163 168 162 151 141 142 143 162 176 183 194
302 235 214 193 204 203 201 201 199 203 234 217 236 204 38 127 125 130 129 121 115 114 120 122 134 135 132 129 134 138 132 133 147 160 156 146 139 135 136 143 158 163 190 208
263 250 239 229 229 261 207 206 192 191 228 231 253 273 27 94 92 100 105 106 107 109 112 111 116 119 120 121 119 122 127 127 133 136 131 135 132 132 137 150 150 134 184 236
239 206 256 218 203 258 250 237 226 235 252 235 222 202 82 88 88 89 91 91 96 98 93 87 88 97 97 97 96 99 105 105 100 110 120 124 131 134 137 136 123 122 154 321
340 218 223 231 266 211 249 242 224 210 222 244 237 211 220 125 114 100 98 94 91 89 80 71 71 84 88 84 86 85 81 87 98 105 116 125 135 133 127 120 109 110 73 344
1 250 258 278 287 267 253 245 223 218 228 234 255 259 258 210 147 129 103 107 94 86 75 68 71 78 84 84 80 83 85 77 80 93 99 109 108 107 103 94 82 49 353 322
330 272 281 266 265 274 276 263 242 235 241 251 265 272 297 336 65 82 79 80 89 85 78 73 67 75 76 77 78 73 78 82 81 80 88 85 87 90 98 96 52 8 333 329
233 231 257 257 274 303 270 244 232 232 236 236 246 258 343 26 38 52 62 62 86 85 81 73 69 74 70 66 63 72 73 86 93 87 74 69 65 60 59 55 12 325 316 317
204 226 243 262 270 237 245 59 209 220 245 264 282 331 38 72 63 53 45 49 57 68 66 69 70 67 61 64 61 62 61 89 94 86 75 66 58 38 26 16 331 308 308 305
209 205 233 232 237 259 270 276 242 219 254 287 289 330 11 39 74 41 36 48 57 62 60 59 66 71 70 62 56 58 49 72 82 63 32 29 73 56 18 347 324 314 312 306
208 196 220 237 239 247 288 334 324 130 272 346 347 356 11 51 88 342 32 38 42 52 56 55 64 62 65 56 53 57 44 48 48 21 351 354 32 49 351 316 307 313 309 301
183 207 222 239 241 261 330 341 20 167 253 12 34 39 48 68 95 68 52 43 45 45 49 57 64 65 62 66 59 46 39 32 12 -0 345 356 6 357 335 326 322 321 319 315
190 202 206 218 228 249 8 49 84 307 32 33 38 44 54 62 58 48 52 52 53 47 39 48 58 50 45 58 61 41 20 4 4 356 340 338 343 349 341 333 326 325 321 316
201 201 202 204 216 333 41 34 19 43 38 26 31 33 43 48 51 41 41 48 55 51 46 46 48 42 39 42 47 27 358 357 356 350 342 338 339 347 334 322 314 315 318 313
236 253 260 262 248 337 26 24 23 35 38 34 34 30 35 38 43 45 48 48 45 42 48 41 40 35 27 27 25 13 352 348 347 342 335 331 336 335 332 324 315 312 314 315
284 261 270 269 291 2 13 28 29 35 30 29 30 30 33 46 43 39 38 39 39 36 35 35 39 27 13 13 9 7 357 352 346 337 337 333 332 328 326 327 324 316 310 309
282 261 249 265 318 302 340 13 27 40 25 21 25 24 29 41 41 34 35 40 41 31 26 26 22 15 3 3 1 357 350 348 342 335 331 329 328 323 321 326 332 334 325 324
Height
1454 1457 1455 1452 1453 1451 1450 1451 1451 1448 1447 1450 1451 1450 1447 1446 1447 1448 1449 1451 1453 1455 1458 1461 1463 1466 1468 1470 1472 1474 1476 1478 1480 1481 1483 1484 1485 1487 1488 1489 1490 1491 1492 1493
1453 1452 1447 1446 1447 1450 1452 1454 1452 1450 1448 1450 1450 1447 1442 1440 1440 1441 1443 1445 1448 1451 1454 1456 1459 1461 1464 1466 1468 1471 1473 1475 1476 1478 1480 1482 1483 1484 1485 1486 1487 1488 1489 1489
1446 1443 1443 1445 1446 1449 1450 1453 1452 1451 1450 1450 1452 1448 1438 1432 1433 1435 1438 1440 1443 1446 1449 1451 1454 1457 1460 1462 1465 1467 1469 1471 1474 1475 1477 1479 1480 1481 1482 1482 1483 1484 1485 1486
1442 1440 1441 1443 1445 1446 1450 1446 1448 1450 1456 1458 1454 1459 1437 1428 1428 1430 1432 1435 1438 1442 1445 1447 1450 1454 1456 1459 1462 1464 1466 1468 1470 1472 1474 1475 1476 1476 1477 1478 1480 1481 1481 1482
1440 1439 1440 1442 1442 1443 1445 1445 1447 1450 1454 1459 1454 1458 1442 1427 1427 1427 1428 1430 1434 1438 1441 1444 1447 1450 1453 1456 1458 1461 1463 1465 1467 1469 1470 1472 1473 1474 1475 1476 1477 1477 1478 1478
1439 1438 1439 1440 1440 1441 1444 1448 1450 1451 1457 1463 1451 1454 1441 1426 1422 1423 1425 1428 1431 1435 1439 1442 1445 1447 1450 1453 1455 1458 1460 1462 1464 1465 1467 1468 1469 1470 1471 1472 1473 1474 1474 1475
1440 1437 1438 1440 1443 1443 1445 1452 1460 1462 1464 1457 1437 1441 1434 1422 1419 1420 1424 1427 1430 1434 1437 1440 1442 1445 1448 1450 1452 1455 1457 1459 1460 1462 1463 1465 1466 1467 1468 1469 1470 1470 1471 1471
1441 1439 1437 1438 1440 1443 1445 1447 1454 1457 1453 1444 1434 1436 1427 1420 1420 1421 1424 1427 1430 1433 1436 1439 1441 1444 1446 1448 1450 1452 1454 1455 1457 1459 1460 1462 1463 1464 1465 1466 1467 1467 1467 1468
1439 1438 1434 1436 1438 1440 1443 1444 1441 1446 1445 1446 1437 1425 1422 1420 1421 1423 1426 1428 1430 1433 1436 1438 1440 1443 1444 1446 1448 1449 1451 1453 1454 1455 1457 1458 1460 1461 1462 1463 1463 1464 1464 1465
1439 1443 1437 1437 1438 1439 1439 1439 1445 1450 1450 1445 1431 1426 1426 1424 1424 1425 1427 1429 1432 1434 1436 1438 1440 1442 1443 1445 1446 1448 1449 1450 1451 1453 1454 1455 1456 1458 1459 1460 1460 1461 1461 1461
1441 1444 1441 1439 1439 1439 1441 1442 1441 1443 1441 1443 1436 1431 1421 1422 1423 1425 1427 1430 1432 1435 1436 1438 1439 1441 1442 1443 1445 1446 1447 1448 1449 1450 1451 1452 1453 1454 1456 1457 1457 1458 1458 1458
1441 1443 1444 1439 1436 1436 1438 1439 1442 1447 1444 1438 1437 1438 1422 1422 1423 1426 1428 1431 1433 1435 1437 1438 1439 1440 1441 1442 1443 1444 1445 1446 1447 1448 1449 1450 1451 1452 1453 1454 1454 1455 1455 1455
1442 1445 1447 1443 1444 1442 1441 1440 1440 1442 1442 1441 1440 1438 1426 1425 1426 1428 1430 1432 1434 1435 1437 1438 1439 1439 1440 1441 1442 1443 1443 1444 1445 1445 1446 1447 1448 1449 1450 1451 1451 1452 1452 1452
1441 1445 1446 1445 1442 1443 1443 1441 1439 1442 1445 1441 1434 1433 1430 1428 1429 1431 1432 1433 1434 1435 1437 1438 1438 1439 1440 1440 1441 1442 1442 1443 1443 1444 1444 1445 1446 1447 1447 1448 1449 1449 1449 1449
1442 1445 1443 1441 1438 1437 1439 1439 1439 1441 1440 1441 1434 1431 1430 1429 1430 1431 1433 1434 1435 1436 1437 1438 1438 1439 1439 1440 1440 1441 1441 1441 1442 1442 1443 1443 1444 1445 1445 1446 1446 1446 1446 1446
1444 1446 1444 1441 1437 1436 1437 1435 1436 1436 1436 1435 1433 1432 1429 1429 1430 1431 1433 1434 1435 1436 1437 1437 1438 1439 1439 1439 1439 1440 1440 1440 1441 1441 1441 1442 1443 1443 1443 1443 1443 1443 1443 1442
1446 1447 1446 1442 1437 1436 1439 1433 1433 1433 1432 1432 1433 1431 1429 1430 1431 1432 1432 1433 1434 1435 1436 1437 1437 1438 1438 1438 1439 1439 1439 1439 1440 1440 1440 1440 1440 1440 1441 1441 1441 1441 1440 1439
1446 1446 1447 1444 1443 1448 1434 1427 1427 1428 1428 1429 1429 1428 1429 1430 1431 1432 1433 1433 1434 1435 1435 1436 1437 1437 1437 1437 1438 1438 1438 1438 1438 1438 1438 1438 1438 1438 1438 1438 1438 1438 1437 1436
1441 1444 1446 1445 1443 1437 1429 1427 1427 1428 1429 1429 1428 1428 1428 1429 1430 1432 1433 1433 1434 1434 1435 1435 1435 1436 1436 1436 1436 1436 1436 1436 1436 1436 1437 1437 1436 1436 1436 1435 1435 1435 1434 1433
1438 1441 1446 1444 1443 1439 1431 1426 1424 1427 1432 1428 1428 1428 1429 1429 1433 1434 1433 1433 1433 1433 1434 1434 1434 1434 1434 1435 1435 1434 1434 1434 1434 1434 1435 1434 1434 1434 1433 1433 1432 1431 1430 1429
1442 1442 1444 1443 1441 1436 1431 1427 1425 1435 1435 1430 1429 1429 1429 1430 1433 1434 1433 1432 1433 1433 1433 1433 1433 1433 1433 1433 1433 1433 1433 1433 1433 1433 1433 1432 1432 1431 1431 1430 1429 1428 1426 1425
1439 1441 1441 1440 1441 1440 1431 1429 1432 1433 1431 1430 1430 1430 1430 1431 1431 1431 1431 1431 1432 1431 1432 1432 1431 1432 1432 1432 1431 1431 1431 1431 1431 1431 1430 1430 1429 1429 1428 1427 1425 1424 1422 1420
1434 1435 1435 1437 1437 1433 1431 1432 1432 1431 1431 1431 1431 1431 1431 1430 1431 1431 1431 1430 1430 1430 1430 1430 1430 1430 1430 1430 1430 1430 1430 1429 1429 1428 1427 1427 1426 1425 1424 1423 1422 1420 1419 1417
1431 1431 1432 1433 1431 1431 1431 1431 1431 1431 1432 1431 1431 1431 1430 1430 1430 1430 1430 1430 1429 1429 1429 1429 1429 1429 1429 1429 1429 1428 1428 1427 1426 1425 1424 1424 1423 1422 1421 1419 1418 1417 1415 1413
1431 1431 1432 1432 1431 1431 1431 1431 1431 1431 1431 1431 1430 1430 1430 1429 1429 1429 1429 1429 1428 1428 1428 1428 1428 1427 1427 1427 1427 1427 1426 1425 1424 1423 1422 1421 1420 1419 1417 1416 1415 1413 1412 1410
1432 1433 1433 1432 1431 1431 1432 1431 1431 1431 1430 1430 1429 1429 1429 1429 1428 1428 1428 1428 1428 1427 1427 1427 1426 1426 1426 1426 1425 1424 1424 1423 1421 1420 1419 1418 1416 1415 1414 1412 1411 1409 1409 1407